TimeMDT,TemperatureF,Dew PointF,Humidity,Sea Level PressureIn,VisibilityMPH,Wind Direction,Wind SpeedMPH,Gust SpeedMPH,PrecipitationIn,Events,Conditions,WindDirDegrees,DateUTC
12:53 AM,79.0,33.1,19,29.86,10.0,SE,8.1,-,N/A,,Clear,130,2013-07-10 06:53:00
1:53 AM,78.1,32.0,19,29.85,10.0,Calm,Calm,-,N/A,,Clear,0,2013-07-10 07:53:00
2:53 AM,73.9,34.0,23,29.85,10.0,Calm,Calm,-,N/A,,Clear,0,2013-07-10 08:53:00
3:53 AM,73.0,36.0,26,29.85,10.0,Calm,Calm,-,N/A,,Clear,0,2013-07-10 09:53:00
4:53 AM,73.0,35.1,25,29.86,10.0,ESE,8.1,-,N/A,,Clear,120,2013-07-10 10:53:00
5:53 AM,72.0,34.0,25,29.86,10.0,ESE,6.9,-,N/A,,Clear,120,2013-07-10 11:53:00
6:53 AM,72.0,34.0,25,29.87,10.0,South,5.8,-,N/A,,Clear,190,2013-07-10 12:53:00
7:53 AM,73.9,35.1,24,29.88,10.0,SE,5.8,-,N/A,,Clear,130,2013-07-10 13:53:00
8:53 AM,77.0,36.0,23,29.89,10.0,Calm,Calm,-,N/A,,Clear,0,2013-07-10 14:53:00
9:53 AM,84.0,33.1,16,29.89,10.0,South,5.8,-,N/A,,Clear,170,2013-07-10 15:53:00
10:53 AM,88.0,34.0,15,29.88,10.0,Variable,3.5,-,N/A,,Clear,0,2013-07-10 16:53:00
11:53 AM,89.1,36.0,15,29.87,10.0,WNW,5.8,-,N/A,,Clear,300,2013-07-10 17:53:00
12:53 PM,91.9,35.1,13,29.85,10.0,West,8.1,-,N/A,,Clear,270,2013-07-10 18:53:00
1:53 PM,93.9,36.0,13,29.83,10.0,West,9.2,-,N/A,,Clear,280,2013-07-10 19:53:00
2:53 PM,96.1,34.0,11,29.81,10.0,WNW,10.4,-,N/A,,Clear,300,2013-07-10 20:53:00
3:53 PM,98.1,30.9,9,29.78,10.0,North,6.9,16.1,N/A,,Clear,350,2013-07-10 21:53:00
4:53 PM,99.0,30.9,9,29.75,10.0,North,8.1,-,N/A,,Clear,350,2013-07-10 22:53:00
5:53 PM,99.0,34.0,10,29.72,10.0,North,10.4,-,N/A,,Clear,350,2013-07-10 23:53:00
6:53 PM,100.0,34.0,10,29.70,10.0,North,5.8,-,N/A,,Clear,350,2013-07-11 00:53:00
7:53 PM,99.0,30.9,9,29.68,10.0,Calm,Calm,-,N/A,,Clear,0,2013-07-11 01:53:00
8:53 PM,97.0,30.9,10,29.67,10.0,Calm,Calm,-,N/A,,Clear,0,2013-07-11 02:53:00
9:53 PM,88.0,39.9,18,29.68,10.0,SSW,4.6,-,N/A,,Clear,200,2013-07-11 03:53:00
10:53 PM,88.0,37.9,17,29.69,10.0,Calm,Calm,-,N/A,,Clear,0,2013-07-11 04:53:00
11:53 PM,84.0,39.0,20,29.71,10.0,East,4.6,-,N/A,,Clear,80,2013-07-11 05:53:00